AO-07 1 07530U 74089B 20044.52090627 -.00000033 00000-0 79501-4 0 9997 2 07530 101.7831 015.0449 0011901 244.5739 226.5812 12.53641990070336 UO-11 1 14781U 84021B 20044.54606505 .00000055 00000-0 12887-4 0 9997 2 14781 097.5969 062.6898 0007075 248.0539 111.9924 14.83141818913310 LO-19 1 20442U 90005G 20044.59365152 -.00000005 00000-0 14621-4 0 9996 2 20442 098.6782 351.5210 0012092 157.5764 202.5950 14.32944687570676 HUBBLE 1 20580U 90037B 20044.46658450 .00000393 00000-0 12908-4 0 9991 2 20580 028.4703 066.3088 0002674 179.9687 325.9582 15.09337613437060 MET-2/21 1 22782U 93055A 20044.53145135 .00000071 00000-0 50440-4 0 9995 2 22782 082.5521 332.7283 0021353 223.4267 309.7422 13.83825346335768 AO-27 1 22825U 93061C 20044.55416385 -.00000016 00000-0 11867-4 0 9990 2 22825 098.9208 043.8761 0008866 027.2532 332.9113 14.30077750375961 IO-26 1 22826U 93061D 20044.56981200 -.00000011 00000-0 13516-4 0 9993 2 22826 098.9149 043.8538 0009182 015.6903 344.4562 14.30412533376197 FO-29 1 24278U 96046B 20044.57228867 -.00000037 00000-0 57360-6 0 9991 2 24278 098.5670 170.8575 0349922 338.4731 020.1997 13.53095464159992 NOAA-15 1 25338U 98030A 20044.53523716 -.00000004 00000-0 17101-4 0 9992 2 25338 098.7299 070.1422 0009397 265.2689 094.7417 14.25950975131171 GO-32 1 25397U 98043D 20044.55754708 -.00000000 00000-0 19224-4 0 9994 2 25397 098.7162 347.0924 0002319 073.5079 286.6354 14.23679174121783 ISS 1 25544U 98067A 20044.59476690 .00001007 00000-0 26323-4 0 9994 2 25544 051.6441 244.9354 0004738 265.0580 148.1841 15.49161739212707 NO-44 1 26931U 01043C 20044.58450320 -.00000018 00000-0 24876-4 0 9997 2 26931 067.0511 104.6327 0006550 263.2809 096.7546 14.30566954959218 SO-50 1 27607U 02058C 20044.46507188 -.00000059 00000-0 12428-4 0 9992 2 27607 064.5554 036.5099 0063311 208.3222 151.4434 14.75608880922280 CO-55 1 27844U 03031E 20044.55787220 .00000032 00000-0 34188-4 0 9991 2 27844 098.6842 054.1647 0010785 060.5009 299.7243 14.22220699862348 CO-57 1 27848U 03031J 20044.47796992 .00000013 00000-0 25662-4 0 9998 2 27848 098.6914 054.6292 0010768 071.7211 288.5137 14.21809837862189 RS-22 1 27939U 03042A 20044.55454660 .00000088 00000-0 24403-4 0 9997 2 27939 098.0696 181.1870 0013626 033.7469 326.4613 14.66836394875708 NOAA-18 1 28654U 05018A 20044.56332869 .00000063 00000-0 58845-4 0 9994 2 28654 099.0630 099.7211 0013789 219.7621 140.2541 14.12488304759282 CO-58 1 28895U 05043F 20044.31835638 .00000101 00000-0 28298-4 0 9996 2 28895 97.9883 184.3318 0015788 318.6118 41.3888 14.63736868762530 Falconsat-3 1 30776U 07006E 20044.55723021 .00002152 00000-0 59068-4 0 9993 2 30776 035.4359 358.7431 0001863 153.3849 206.6974 15.37208266717601 CO-65 1 32785U 08021C 20044.49364129 .00000147 00000-0 21456-4 0 9998 2 32785 097.5643 038.0740 0012912 181.0312 179.0881 14.88416441639287 AAUSAT2 1 32788U 08021F 20044.55919747 .00000539 00000-0 54270-4 0 9995 2 32788 097.4926 054.6114 0013190 112.7381 247.5236 14.94941861640652 DO-64 1 32789U 08021G 20044.35473513 .00000953 00000-0 66763-4 0 9990 2 32789 097.4355 091.4380 0012694 031.8903 328.3091 15.07446817642961 CO-66 1 32791U 08021J 20044.44104257 .00000121 00000-0 17563-4 0 9990 2 32791 097.5358 044.1562 0013956 153.3258 206.8682 14.90970400639750 RS-30 1 32953U 08025A 20044.48630805 .00000037 00000-0 19437-3 0 9998 2 32953 082.5070 355.6284 0019157 330.3296 029.6698 12.43094321532108 PRISM 1 33493U 09002B 20044.59275801 -.00000151 00000-0 -75581-5 0 9990 2 33493 098.1354 339.7985 0016138 106.3977 253.9019 14.96903961601026 NOAA-19 1 33591U 09005A 20044.55876324 .00000003 00000-0 26723-4 0 9992 2 33591 099.1947 046.6601 0014875 067.6207 292.6538 14.12395382567504 TISAT-1 1 36799U 10035E 20044.50459649 .00000120 00000-0 18206-4 0 9999 2 36799 098.1798 210.0706 0012650 025.5706 334.6134 14.91268441520307 JUGNU 1 37839U 11058B 20044.49009520 .00000313 00000-0 25194-4 0 9996 2 37839 019.9618 320.5934 0019051 091.0104 066.5636 14.12671111431097 SRMSAT 1 37841U 11058D 20044.60074946 .00000298 00000-0 18392-4 0 9990 2 37841 019.9734 021.6608 0011659 312.8485 204.5294 14.10649233430516 AO-71 1 37854U 11061E 20044.55723816 .00001074 00000-0 61757-4 0 9995 2 37854 101.7128 071.3528 0159258 073.2004 288.6610 15.06980328452667 HRBE 1 37855U 11061F 20044.55454580 .00001010 00000-0 57625-4 0 9994 2 37855 101.7261 068.5599 0171933 085.5903 276.4931 15.05993139452406 ALMASAT-1 1 38078U 12006B 20044.21023390 .00067461 58407-5 17955-3 0 9998 2 38078 69.4196 290.8842 0091017 242.8165 259.5757 15.87717232435153 HORYU-2 1 38340U 12025D 20044.59557415 .00000107 00000-0 23606-4 0 9998 2 38340 098.2994 094.9880 0012726 081.4254 278.8396 14.75808734406135 RS-40 1 38735U 12041C 20044.48790658 .00000032 00000-0 15628-3 0 9991 2 38735 082.4737 078.5872 0018245 074.7587 285.5516 12.42579956342331 BEESAT-3 1 39135U 13015F 20044.53472971 .00000928 00000-0 54396-4 0 9999 2 39135 064.8684 344.7830 0045714 265.7836 093.8065 15.17926885376252 BEESAT-2 1 39136U 13015G 20044.26808413 .00000569 00000-0 38147-4 0 9991 2 39136 064.8706 350.2094 0030227 278.8058 080.9645 15.17327020376129 ZACUBE-1 1 39417U 13066B 20044.52875221 .00000177 00000-0 28603-4 0 9990 2 39417 097.5628 049.5235 0058079 328.8560 030.9216 14.81220970336548 TRITON-1 1 39427U 13066M 20044.53709739 .00000198 00000-0 39160-4 0 9995 2 39427 097.7092 012.5278 0114956 117.3759 243.9200 14.67941683333339 GOMX-1 1 39430U 13066Q 20044.40222463 .00000065 00000-0 21046-4 0 9996 2 39430 97.7774 350.5789 0149875 218.2487 140.8002 14.59347041331566 LO-74 1 39440U 13066AA 20044.54781797 .00000185 00000-0 32666-4 0 9995 2 39440 097.6200 034.0342 0080861 026.7983 333.7371 14.75957080334159 AO-73 1 39444U 13066AE 20044.53032230 .00000223 00000-0 33745-4 0 9991 2 39444 097.5584 051.6774 0057032 321.5561 038.1595 14.82061842334865 SPROUT 1 39770U 14029E 20044.51541070 .00000346 00000-0 44148-4 0 9993 2 39770 97.8904 151.4170 0009379 26.2246 333.9445 14.87606352310483 DUCHIFAT-1 1 40021U 14033M 20044.30854808 .00000235 00000-0 29783-4 0 9997 2 40021 97.9367 334.8394 0012622 346.7072 13.3812 14.90809530307249 NANOSATCBR1 1 40024U 14033Q 20044.53085729 .00000316 00000-0 38697-4 0 9997 2 40024 097.9234 331.8313 0012020 350.5220 009.5769 14.89993816306632 EO-79 1 40025U 14033R 20044.53820126 .00000242 00000-0 31689-4 0 9998 2 40025 097.9129 328.8938 0012381 357.1289 002.9855 14.89068846306508 DTUSAT-2 1 40030U 14033W 20044.53343471 .00000211 00000-0 28603-4 0 9995 2 40030 097.9024 326.6159 0011758 353.3636 006.7423 14.88652701306422 EO-80 1 40032U 14033Y 20044.54793266 .00000180 00000-0 25332-4 0 9990 2 40032 097.9031 326.6319 0011697 354.1997 005.9082 14.88598800306400 ANTELSAT 1 40034U 14033AA 20044.58291439 .00000157 00000-0 30496-4 0 9992 2 40034 097.7302 266.1351 0059662 043.1063 317.4795 14.74203961303481 VELOX-1 1 40057U 14034E 20044.58116813 .00000239 00000-0 40984-4 0 9994 2 40057 098.2603 178.2774 0010996 178.5188 181.6053 14.77799148303192 DAURIA DX 1 1 40071U 14037C 20044.48826806 .00000105 00000-0 20957-4 0 9992 2 40071 98.4479 216.0299 0008575 169.0655 191.0749 14.81333095302756 UKUBE-1 1 40074U 14037F 20044.44567747 .00000296 00000-0 42630-4 0 9990 2 40074 98.4514 225.3472 0004640 145.6023 214.5493 14.84191933303218 HODOYOSHI-1 1 40299U 14070B 20044.49350685 .00000548 00000-0 25573-4 0 9999 2 40299 97.3333 124.0827 0011335 276.8085 93.8531 15.23868856292786 CHUBUSAT-1 1 40300U 14070C 20044.46139215 .00000526 00000-0 25721-4 0 9994 2 40300 97.3043 117.2822 0018261 296.4202 130.3794 15.22355675292495 QSAT-EOS 1 40301U 14070D 20044.61096727 .00001358 00000-0 54353-4 0 9999 2 40301 097.3056 121.8661 0023621 270.7548 230.4998 15.26567111292881 FIREBIRD FU3 1 40377U 15003B 20044.56874736 .00001804 00000-0 73263-4 0 9994 2 40377 099.1118 079.1514 0125128 011.4842 348.9195 15.19600892278331 FIREBIRD FU4 1 40378U 15003C 20044.55426251 .00001793 00000-0 72760-4 0 9997 2 40378 099.1117 079.2245 0125285 011.4188 348.9837 15.19615240278336 GRIFEX 1 40379U 15003D 20044.16158183 .00001370 00000-0 61296-4 0 9994 2 40379 99.1180 71.3791 0134310 35.2313 325.7702 15.16074735277865 NO-84 1 40654U 15025D 20044.56036829 .00011910 00000-0 15183-3 0 8533 2 40654 54.9888 155.3372 0122259 223.0924 136.0471 15.51381612149629 DEORBITSAIL 1 40719U 15032E 20044.43860464 .00000294 00000-0 48922-4 0 9991 2 40719 97.8854 296.0543 0015009 251.3274 108.6307 14.76909841247649 NUDT-PHONESAT 1 40900U 15049B 20044.50621713 .00001920 00000-0 82965-4 0 9993 2 40900 97.4345 56.5596 0014273 66.5424 84.9081 15.23613828244163 XW-2A 1 40903U 15049E 20044.39037418 .00001535 00000-0 37180-4 0 9997 2 40903 97.3066 93.1593 0013451 5.0601 50.0818 15.42622352247192 XW-2C 1 40906U 15049H 20044.50879786 .00000332 00000-0 20733-4 0 9995 2 40906 97.4742 47.7282 0016520 87.2093 64.9834 15.15924735243327 XW-2D 1 40907U 15049J 20044.51477353 .00000571 00000-0 33003-4 0 9990 2 40907 97.4724 47.4249 0015872 85.1456 33.0351 15.16140776243346 LILACSAT-2 1 40908U 15049K 20044.53288547 .00000604 00000-0 36809-4 0 9992 2 40908 97.4867 45.9670 0017712 92.9419 21.3209 15.13956170243090 XW-2E 1 40909U 15049L 20044.59468178 .00001046 00000-0 54382-4 0 9996 2 40909 097.4627 050.7662 0015275 078.1792 039.6807 15.18192251243589 XW-2F 1 40910U 15049M 20044.51119714 .00000731 00000-0 39503-4 0 9997 2 40910 97.4670 49.8019 0016359 76.2333 75.5458 15.17700654243388 XW-2B 1 40911U 15049N 20044.49869275 .00000509 00000-0 29842-4 0 9997 2 40911 97.4743 48.0951 0015753 85.7631 65.2838 15.16067541243231 DCBB 1 40912U 15049P 20044.50349039 .00001035 00000-0 51021-4 0 9990 2 40912 97.4496 53.7990 0016306 58.3486 94.1418 15.20065187243731 TW-1C 1 40926U 15051B 20044.37604343 .00014082 00000-0 16705-3 0 9990 2 40926 97.1029 95.6157 0006428 181.6692 234.1446 15.61286918247483 TW-1A 1 40928U 15051D 20044.36986380 .00002360 00000-0 57335-4 0 9996 2 40928 97.1224 75.2044 0008926 286.3795 130.6164 15.41952239246090 IO-86 1 40931U 15052B 20042.70762257 .00000613 00000-0 -37404-5 0 9998 2 40931 6.0007 159.3068 0013310 283.6628 76.2153 14.76625652236499 LQSat 1 40958U 15057A 20044.54458709 -.00000016 00000-0 51415-5 0 9995 2 40958 097.8698 111.8844 0018013 186.9996 173.0963 14.73107856234126 AO-85 1 40967U 15058D 20044.57851173 .00000074 00000-0 27628-4 0 9532 2 40967 64.7749 149.9527 0173312 121.0067 240.8169 14.76069889143147 ATHENOXAT-1 1 41168U 15077C 20043.94925746 .00001758 00000-0 56807-4 0 9996 2 41168 14.9875 262.0755 0011475 182.0172 178.0103 15.14101229230294 ChubuSat-2 1 41338U 16012B 20044.42077036 .00000284 00000-0 15337-4 0 9995 2 41338 031.0041 061.1632 0013775 317.9242 042.0335 15.00243066218948 ChubuSat-3 1 41339U 16012C 20044.42927534 .00000268 00000-0 14026-4 0 9999 2 41339 31.0126 58.8977 0013784 325.5747 34.3994 15.00411466218949 Horyu-4 1 41340U 16012D 20044.38427849 .00000417 00000-0 24862-4 0 9995 2 41340 031.0059 048.2221 0013895 347.5316 012.4974 15.01415380219069 OUFTI-1 1 41458U 16025C 20044.22873968 .00001553 00000-0 82325-4 0 9999 2 41458 098.0977 148.3027 0163365 271.3005 086.9511 15.06440135208628 e-st@r-II 1 41459U 16025D 20044.50489001 .00000734 00000-0 41778-4 0 9999 2 41459 98.0960 148.1018 0164685 272.1297 86.1095 15.06028791208637 AAUSAT4 1 41460U 16025E 20044.56145056 .00002247 00000-0 11472-3 0 9994 2 41460 098.0921 150.0693 0154369 262.1081 096.2594 15.08170476208811 LO-87 1 41557U 16033B 20044.55085885 .00000968 00000-0 38399-4 0 9998 2 41557 097.4070 135.6134 0014110 163.6332 196.5365 15.27727254206707 NuSat2 1 41558U 16033C 20044.54601928 .00001146 00000-0 42425-4 0 9994 2 41558 097.4110 137.4584 0013181 161.7299 198.4418 15.29676719206790 Lapan A3 1 41603U 16040E 20044.58312801 .00000038 00000-0 48780-5 0 9996 2 41603 097.3281 101.9113 0011722 282.2115 215.0364 15.19795346202179 Swayam 1 41607U 16040J 20044.12584287 .00001146 00000-0 50317-4 0 9998 2 41607 97.3354 106.3643 0011553 268.2530 91.7384 15.23885075202331 Pratham 1 41783U 16059A 20044.38469461 .00000033 00000-0 15670-4 0 9994 2 41783 098.0355 103.2467 0033247 352.3277 007.7412 14.63036572180597 AlSat 1N 1 41789U 16059G 20044.44153862 .00000083 00000-0 24724-4 0 9997 2 41789 98.0388 105.8328 0027809 341.0341 18.9828 14.64296096180738 ScatSat 1 41790U 16059H 20044.57423663 .00000021 00000-0 16336-4 0 9994 2 41790 098.1790 088.4661 0004994 319.5916 040.4909 14.50900680179118 TY-1 1 41844U 16066D 20044.61761625 .00000795 00000-0 35012-4 0 9990 2 41844 097.4048 054.1886 0016714 066.1673 051.6468 15.24641821181245 Pegasus-1 1 41846U 16066F 20044.08952877 .00000165 00000-0 36272-4 0 9994 2 41846 098.6808 092.7216 0366183 246.3309 109.9051 14.37700573170959 CAS-2T 1 41847U 16066G 20044.59147425 .00000002 00000-0 11554-4 0 9992 2 41847 098.6739 093.7316 0364871 240.8177 115.6050 14.38039880171477 EO-88 1 42017U 17008BX 20043.74102414 .00001233 00000-0 50546-4 0 9995 2 42017 97.3756 113.0706 0007483 55.9098 304.2849 15.26134032166379 nSIGHT1 1 42726U 98067MF 20044.52928002 .00064028 00000-0 22738-3 0 9994 2 42726 051.6294 150.3630 0004401 003.9126 356.1913 15.88338539155684 CAS-4B 1 42759U 17034B 20044.32260730 .00000248 00000-0 28640-4 0 9993 2 42759 43.0205 354.5210 0012581 318.8541 171.9987 15.09741523147056 CAS-4A 1 42761U 17034D 20044.34038020 .00000171 00000-0 23894-4 0 9994 2 42761 43.0200 353.8050 0012892 319.7992 175.4990 15.09818954147059 UCLSat 1 42765U 17036A 20044.42054108 .00000936 00000-0 42397-4 0 9992 2 42765 97.3197 101.9183 0013026 105.0149 255.2531 15.23235034146953 NIUSat 1 42766U 17036B 20044.58682907 .00000700 00000-0 34010-4 0 9996 2 42766 097.3191 099.8880 0017240 098.3474 261.9718 15.21494174146708 LituanicaSAT 2 1 42768U 17036D 20044.30316983 .00001507 00000-0 65673-4 0 9991 2 42768 097.3244 101.6044 0016514 097.1640 263.1476 15.23589340146783 Aalto 1 1 42775U 17036L 20044.31903987 .00000552 00000-0 27358-4 0 9993 2 42775 97.3174 99.9777 0015601 98.6571 261.6433 15.21654819146643 URSA MAIOR 1 42776U 17036M 20044.58558063 .00000620 00000-0 30238-4 0 9991 2 42776 097.3185 100.4700 0015425 097.7355 262.5634 15.21817982146694 Max Valier Sat 1 42778U 17036P 20044.40243950 .00000645 00000-0 30844-4 0 9990 2 42778 97.3234 101.3906 0013979 101.6502 258.6305 15.22395323146704 Pegasus 1 42784U 17036V 20044.42101213 .00000829 00000-0 38196-4 0 9996 2 42784 097.3200 101.6563 0013609 105.8812 254.3926 15.22944932146748 NUDATSat 1 42787U 17036Y 20044.38307393 .00001397 00000-0 60264-4 0 9993 2 42787 097.3243 102.7421 0012503 098.3489 261.9173 15.24123850146648 SUCHAI 1 1 42788U 17036Z 20044.42259850 .00001000 00000-0 44792-4 0 9992 2 42788 097.3207 102.1363 0013164 104.6840 255.5858 15.23442855146843 SKCUBE 1 42789U 17036AA 20044.39092522 .00000923 00000-0 41731-4 0 9993 2 42789 097.3202 101.9937 0013039 104.9056 255.3626 15.23307257146753 VZLUSAT 1 1 42790U 17036AB 20044.43683109 .00001277 00000-0 55344-4 0 9995 2 42790 097.3223 102.7907 0012568 103.3224 256.9416 15.24113495146800 VENTA 1 1 42791U 17036AC 20044.42977613 .00000859 00000-0 39074-4 0 9998 2 42791 097.3200 102.0794 0012695 105.2087 255.0555 15.23301133146757 Robusta 1B 1 42792U 17036AD 20044.42563864 .00000976 00000-0 43764-4 0 9999 2 42792 097.3204 102.2410 0012617 105.2145 255.0488 15.23489935146783 D-SAT 1 42794U 17036AF 20044.57017366 .00000216 00000-0 23880-4 0 9992 2 42794 097.5103 083.3004 0127674 062.1639 299.2450 14.91217392144082 TechnoSat 1 42829U 17042E 20044.59789045 .00000003 00000-0 57189-5 0 9994 2 42829 097.5380 292.1034 0013849 347.3980 012.6891 14.91055538140686 QIKCOM-1 1 42983U 98067NF 20044.47589586 .00002941 00000-0 41176-4 0 9997 2 42983 51.6379 215.0324 0003424 309.7449 50.3242 15.60509447130769 AO-91 1 43017U 17073E 20044.48865141 .00000365 00000-0 33353-4 0 9995 2 43017 097.7268 321.5282 0258872 097.4271 265.6433 14.78792807120691 EcAMSat 1 43019U 98067NG 20044.43659180 .00005771 00000-0 65051-4 0 9994 2 43019 51.6395 205.0881 0003666 292.3826 67.6781 15.64202559213218 PICSAT 1 43132U 18004X 20044.45288592 .00000964 00000-0 42621-4 0 9997 2 43132 097.4614 116.5019 0010956 127.8197 232.4034 15.24101595116015 AO-92 1 43137U 18004AC 20044.46995993 .00000750 00000-0 34038-4 0 9999 2 43137 097.4602 116.4108 0010518 129.1718 231.0455 15.23876852116019 TianYi 2 1 43155U 18008A 20044.48725789 .00000326 00000-0 23008-4 0 9993 2 43155 97.4612 116.6903 0016510 215.0115 201.3025 15.11451013114048 Zhou Enlai 1 43156U 18008B 20044.47943382 .00000676 00000-0 44235-4 0 9997 2 43156 97.4662 116.5450 0013761 212.2023 205.4576 15.10977729114000 TianYi 6 1 43158U 18008D 20044.46100992 .00001085 00000-0 69538-4 0 9998 2 43158 97.4633 115.7393 0013279 209.2947 216.4334 15.10535080113959 S-Net G 1 43186U 18014G 20044.43602141 .00000515 00000-0 50107-4 0 9995 2 43186 097.7021 314.2555 0009352 286.5051 073.5143 14.96754029110991 S-Net H 1 43187U 18014H 20044.50269030 .00000510 00000-0 49616-4 0 9998 2 43187 097.7019 314.3031 0009348 286.1426 073.8766 14.96754038111003 S-Net J 1 43188U 18014J 20044.50253832 .00000523 00000-0 50805-4 0 9998 2 43188 097.7022 314.3280 0009342 286.2748 073.7445 14.96753658111006 S-Net K 1 43189U 18014K 20044.50291477 .00000501 00000-0 48860-4 0 9990 2 43189 097.7019 314.2995 0009344 286.1485 073.8707 14.96753347109558 FMN 1 1 43192U 18015A 20044.48864677 .00002098 00000-0 86408-4 0 9993 2 43192 97.4248 174.7828 0016323 164.3524 260.4450 15.25114345112851 Shaonian Xing 1 43199U 18015H 20044.50015981 .00001572 00000-0 64919-4 0 9998 2 43199 097.4031 173.3849 0017048 174.3876 250.0823 15.25404713112919 1KUNS-PF 1 43466U 98067NP 20044.58211062 .00045590 00000-0 24524-3 0 9991 2 43466 051.6313 186.9855 0001512 317.8498 042.2387 15.79739468100641 UBAKUSAT 1 43467U 98067NQ 20044.46830663 .00015819 00000-0 13646-3 0 9997 2 43467 51.6340 202.0935 0001550 261.4752 98.6069 15.69443138100445 Irazu 1 43468U 98067NR 20044.54868640 .00238189 34670-4 47205-3 0 9992 2 43468 051.6287 171.5279 0005748 326.2312 033.8331 15.99455467200830 EnduroSat One 1 43551U 98067NZ 20044.60127206 .00024640 00000-0 19066-3 0 9993 2 43551 051.6336 202.2199 0004240 334.8072 025.2719 15.71719744090681 EQUISat 1 43552U 98067PA 20044.44722894 .00014898 00000-0 13465-3 0 9991 2 43552 51.6359 208.0271 0004646 332.5072 27.5678 15.68347645 90555 UiTMSat 1 1 43589U 98067PD 20044.49767335 .00018114 00000-0 15481-3 0 9990 2 43589 51.6328 207.4841 0003984 340.9389 19.1458 15.69547893 86304 Maya 1 1 43590U 98067PE 20044.49078366 .00017570 00000-0 15032-3 0 9998 2 43590 051.6332 207.4465 0004086 341.1918 018.8928 15.69547920086239 Bhutan 1 1 43591U 98067PF 20044.47169215 .00018006 00000-0 15344-3 0 9992 2 43591 051.6340 207.3676 0004194 341.9547 018.1300 15.69623940086232 SiriusSat 1 1 43595U 98067PG 20044.49354553 .00016076 00000-0 14650-3 0 9993 2 43595 051.6332 210.4751 0002478 296.8460 063.2283 15.68078601085373 SiriusSat 2 1 43596U 98067PH 20044.48365498 .00016652 00000-0 15208-3 0 9993 2 43596 051.6341 211.2218 0002918 296.5225 063.5472 15.67992052085362 Tanusha-3 1 43597U 98067PJ 20044.45749334 .00026369 00000-0 19631-3 0 9996 2 43597 051.6316 204.9078 0002537 311.4206 048.6574 15.72599558085447 SurfSat 1 43614U 18070B 20044.42313261 .00001858 00000-0 48737-4 0 9991 2 43614 093.0311 102.8927 0018273 099.4824 260.8496 15.38587528079253 CP-7 DAVE 1 43615U 18070C 20044.18387345 .00001961 00000-0 51635-4 0 9995 2 43615 093.0314 102.7900 0018396 099.7335 260.5997 15.38472847079219 ELFIN-B 1 43616U 18070D 20044.58279016 .00002791 00000-0 70846-4 0 9992 2 43616 093.0274 102.8681 0018926 100.9036 259.4350 15.39545818079304 ELFIN-A 1 43617U 18070E 20044.43394492 .00002653 00000-0 67110-4 0 9990 2 43617 093.0329 103.2141 0018249 098.4505 261.8818 15.39677670079287 STARS-Me Mother 1 43640U 98067PQ 20043.50599622 .00009615 00000-0 11103-3 0 9994 2 43640 51.6347 225.7109 0004231 272.1415 87.9094 15.62645794 77014 CubeBel 1 1 43666U 18083E 20044.54281792 .00001160 00000-0 60226-4 0 9991 2 43666 097.5009 072.1718 0016745 076.3977 075.9807 15.18011566071665 Changshagaoxin 1 43669U 18083H 20044.56408890 .00000581 00000-0 32665-4 0 9998 2 43669 097.4890 070.7669 0012411 071.2721 288.9858 15.17103515071590 Ten-Koh 1 43677U 18084G 20044.60289319 .00000199 00000-0 26371-4 0 9998 2 43677 097.8686 162.0909 0015464 205.8635 154.1811 14.90245806070343 PO-101 1 43678U 18084H 20044.43241196 .00000452 00000-0 50756-4 0 9997 2 43678 97.8688 162.9739 0008781 224.8263 135.2242 14.91608199 70389 IRVINE 01 1 43693U 18088D 20044.35895329 .00001966 00000-0 83204-4 0 9997 2 43693 085.0385 159.7791 0018918 037.8672 322.3897 15.22329067069810 QO-100 1 43700U 18090A 20044.22544259 .00000131 00000-0 00000 0 0 9999 2 43700 0.0228 121.8796 0002456 241.3758 246.4337 1.00272641 4690 Reaktor Hello World 1 43743U 18096AA 20044.49508399 .00001116 00000-0 44660-4 0 9995 2 43743 097.4341 118.9493 0017089 205.0757 213.0906 15.27110183067325 MinXSS-2 1 43758U 18099A 20044.42308021 .00000590 00000-0 58349-4 0 9991 2 43758 97.7203 118.3334 0014238 244.1902 115.7850 14.95574255 65263 AO-95 1 43770U 18099N 20044.47694891 .00000594 00000-0 59658-4 0 9991 2 43770 097.7198 117.9615 0013212 251.7772 108.2011 14.94907005065243 RANGE-B 1 43772U 18099Q 20044.44499630 -.00000075 00000-0 -15383-5 0 9998 2 43772 097.7261 118.3033 0013022 238.3843 121.6107 14.95068882065230 RANGE-A 1 43773U 18099R 20044.46667262 .00000283 00000-0 31152-4 0 9999 2 43773 97.7141 117.6847 0012402 237.8117 122.1902 14.94905520 65239 MOVE-II 1 43780U 18099Y 20044.45847284 .00000150 00000-0 18830-4 0 9991 2 43780 097.7194 118.0784 0012392 249.2362 110.7531 14.95274519065236 SNUSat 2 1 43782U 18099AA 20044.46085234 .00000101 00000-0 14453-4 0 9996 2 43782 97.7192 118.1126 0011653 237.3799 122.6298 14.95179531 65249 SnugLite 1 43784U 18099AC 20044.43707302 -.00000049 00000-0 77810-6 0 9992 2 43784 97.7162 117.9513 0013771 246.9018 113.0752 14.95274053 65253 ITASat 1 1 43786U 18099AE 20044.43574559 .00000004 00000-0 55771-5 0 9991 2 43786 097.7214 118.2508 0013850 245.8285 114.1489 14.95259918065255 EAGLET 1 1 43790U 18099AJ 20044.45953406 .00000020 00000-0 70053-5 0 9998 2 43790 097.7200 118.4733 0012320 250.6801 109.3088 14.95634645064968 ESEO 1 43792U 18099AL 20044.46233040 -.00000035 00000-0 20169-5 0 9996 2 43792 97.7175 118.3576 0012048 247.1570 112.8379 14.95565422 65022 CSIM 1 43793U 18099AM 20044.47357551 .00000670 00000-0 64942-4 0 9992 2 43793 097.7161 118.2892 0011940 242.7433 117.2572 14.95919207065003 Astrocast 0.1 1 43798U 18099AS 20044.46334168 .00000040 00000-0 87789-5 0 9991 2 43798 97.7190 118.5526 0011531 228.1789 131.8448 14.95815620 65261 JO-97 1 43803U 18099AX 20044.46435110 .00000232 00000-0 26204-4 0 9994 2 43803 97.7170 118.1294 0013963 245.9570 114.0190 14.95415956 65254 Suomi 100 1 43804U 18099AY 20044.46440162 .00000235 00000-0 26512-4 0 9993 2 43804 97.7168 118.1225 0014032 246.1109 113.8642 14.95408858 65268 Al Farabi 2 1 43805U 18099AZ 20044.44780195 -.00000174 00000-0 -10425-4 0 9995 2 43805 97.7176 118.1587 0014047 246.5892 113.3852 14.95508761 65260 PWSat 2 1 43814U 18099BJ 20044.52186982 .00018511 00000-0 12415-2 0 9999 2 43814 97.7801 123.3226 0010376 209.9644 150.0981 15.06858187 64872 CHOMPTT 1 43855U 18104G 20044.65368347 .00000772 00000-0 31173-4 0 9996 2 43855 085.0370 257.7483 0018458 144.7421 215.5046 15.22750215064536 ISAT 1 43879U 18111D 20044.57070757 .00000516 00000-0 50897-4 0 9996 2 43879 097.7102 313.9628 0011896 307.2779 052.7357 14.96152355061806 UWE-4 1 43880U 18111E 20044.57081272 .00000483 00000-0 47752-4 0 9991 2 43880 097.7113 314.1687 0011025 308.5629 051.4604 14.96389380061812 Sparrow 1 43881U 18111F 20044.55776795 .00000782 00000-0 74034-4 0 9996 2 43881 097.7115 314.2084 0011131 306.0358 053.9831 14.96440009061812 Lume 1 1 43908U 18111AJ 20044.50228631 .00000787 00000-0 34432-4 0 9995 2 43908 97.2770 308.0490 0020161 221.6475 138.3229 15.24781917 62987 FO-98 1 43933U 19003B 20044.41236654 .00000564 00000-0 27655-4 0 9990 2 43933 97.2500 98.8224 0016935 327.2512 43.6385 15.21932987 59512 FO-99 1 43937U 19003F 20044.58739253 .00001137 00000-0 49397-4 0 9999 2 43937 097.2450 099.8895 0022781 308.6707 187.8220 15.24081923059618 Delphini 1 1 44030U 98067PW 20044.54958581 .00011547 00000-0 13582-3 0 9996 2 44030 051.6347 226.6917 0003563 327.3390 032.7383 15.61928296058969 MYSat 1 1 44045U 18092F 20044.10667034 .00001711 00000-0 58894-4 0 9992 2 44045 051.6469 290.6181 0011136 225.7852 134.2216 15.36014816056027 AstroCast 0.2 1 44083U 19018F 20044.40062566 .00000527 00000-0 26540-4 0 9992 2 44083 97.4385 107.0747 0011754 247.1028 112.8967 15.21428589 48365 AISTechSat 3 1 44103U 19018AB 20044.61438567 .00000773 00000-0 35879-4 0 9994 2 44103 097.4253 107.3789 0011792 265.6474 228.5803 15.22963447048433 AISat 1 1 44104U 19018AC 20044.46214690 .00000592 00000-0 21687-4 0 9998 2 44104 097.4795 113.2696 0057008 297.3453 062.1992 15.30836197048685 Raavana-1 1 44329U 98067QE 20044.52472692 .00006227 00000-0 96595-4 0 9994 2 44329 051.6386 239.3408 0006109 251.7001 108.3326 15.55434546037548 Uguisu 1 44330U 98067QF 20044.53169408 .00006444 00000-0 99929-4 0 9990 2 44330 051.6382 239.3850 0006099 250.2888 109.7446 15.55375294037522 NepaliSat-1 1 44331U 98067QG 20044.26248224 .00006174 00000-0 95734-4 0 9995 2 44331 051.6384 240.5894 0006135 252.1076 107.9246 15.55462009037493 Prox-1 1 44339U 19036A 20044.40177647 .00000704 00000-0 11780-3 0 9999 2 44339 024.0019 178.6506 0010551 229.0635 130.8943 14.52836555033922 Oculus-ASR 1 44348U 19036K 20044.62059783 .00005854 00000-0 86562-4 0 9995 2 44348 028.5187 120.6210 0376117 058.4171 305.2572 15.00191860035024 Armadillo 1 44352U 19036P 20044.48870721 .00008197 00000-0 12278-3 0 9992 2 44352 028.5337 119.8090 0368169 059.2995 304.3341 15.01892224034973 NO-104 1 44354U 19036R 20044.49875147 .00005519 00000-0 79491-4 0 9998 2 44354 028.5296 119.8101 0374070 058.8796 304.7939 15.01070352035017 NO-103 1 44355U 19036S 20044.53686822 .00009969 00000-0 14340-3 0 9998 2 44355 028.5296 116.2302 0361201 064.7313 299.0257 15.04304057035053 CP9 1 44360U 19036X 20044.44736415 .00016588 -52555-5 19359-3 0 9996 2 44360 028.5161 110.1799 0352682 075.0878 288.8487 15.08954535034985 Move-IIb 1 44398U 19038N 20044.55491466 .00000841 00000-0 52425-4 0 9994 2 44398 097.5207 007.5250 0024794 194.3611 165.6917 15.12040818033708 SONATE 1 44400U 19038Q 20044.43283033 .00000395 00000-0 26801-4 0 9997 2 44400 97.5233 7.4235 0024843 192.9552 167.1043 15.11828332 33684 BeeSat 9 1 44412U 19038AC 20044.33973481 .00000547 00000-0 35432-4 0 9991 2 44412 97.5225 7.3785 0022215 198.7592 161.2822 15.12084231 33364 JAISAT-1 1 44419U 19038F 20044.53223786 .00000579 00000-0 36800-4 0 9991 2 44419 097.5227 007.7381 0021100 197.3092 162.7422 15.12566803033712 LightSail-2 1 44420U 19036AC 20044.43651207 .00004442 00000-0 97509-3 0 9998 2 44420 24.0096 177.0407 0012832 231.7883 128.1502 14.54414097 32082 Taurus 1 1 44530U 19059C 20044.50679377 .00000256 00000-0 85747-4 0 9992 2 44530 98.5765 124.3907 0017410 168.2577 191.9045 14.45262100 22292 MO-106 1 44830U 19084G 20044.57055566 .00023272 00000-0 20354-3 0 9993 2 44830 096.9947 273.3807 0037352 356.9213 003.1813 15.67969472010827 TRSI-Sat 1 44831U 19084H 20043.86768454 .00026649 00000-0 23316-3 0 9994 2 44831 96.9953 272.6917 0037381 358.7348 1.3813 15.67934858 10729 MO-105 1 44832U 19084J 20044.43392922 .00025333 00000-0 21887-3 0 9992 2 44832 96.9951 273.2700 0036739 356.6981 3.4033 15.68281256 10805 Duchifat 3 1 44854U 19089C 20044.53379668 .00000304 00000-0 31038-4 0 9995 2 44854 036.9667 116.5487 0006904 129.6297 230.5041 14.98969255009542 OPS-SAT 1 44878U 19092F 20044.43610327 -.00000066 00000-0 00000-0 0 9991 2 44878 097.4634 229.8619 0015501 072.8855 287.4140 15.15254047008604 FloripaSat 1 1 44885U 19093G 20044.28183168 .00000233 00000-0 36184-4 0 9992 2 44885 97.9701 121.1550 0016248 94.6398 265.6668 14.81967130 8163 HuskySat-1 1 45119U 19071J 20044.26266438 .00000780 00000-0 35636-4 0 9997 2 45119 51.6431 248.0643 0011989 325.4570 34.5632 15.33113022 1918 /EX